Lid_Strength_Index
3 3 3 3 3 3 2 2 2 2 2 2 2 2 2 2 2 2 5 4 2 -1 -1 1 2 3 3 5 5 5 9 10 8 8 7 5 7 6 5 6 5 5 5 3 2
2 3 3 3 3 3 2 2 2 2 2 2 2 2 2 2 2 5 4 -0 -1 -2 2 4 4 4 5 5 5 7 9 9 6 7 7 6 6 6 6 6 7 5 4 4 3
3 3 3 3 3 3 2 2 2 2 2 2 2 2 2 2 3 5 0 -0 -1 -1 2 3 4 4 6 5 5 6 8 6 6 6 6 6 6 5 6 7 6 6 5 4 4
3 3 3 3 3 2 2 2 2 2 2 2 2 2 2 2 8 4 -1 -1 -2 0 2 4 4 6 6 6 5 7 5 5 5 5 6 6 5 6 6 6 4 4 4 4 4
3 3 3 3 3 3 3 2 2 3 2 3 2 2 2 4 6 2 -2 -1 1 2 3 4 5 5 7 6 6 6 6 5 4 5 5 5 6 6 6 5 4 4 4 4 3
3 3 3 2 3 3 3 2 3 3 3 3 2 2 2 6 3 2 1 2 2 3 3 4 5 4 6 5 6 5 5 5 5 5 5 6 6 6 5 4 4 4 4 4 3
3 3 3 2 2 3 2 2 3 3 3 2 2 2 3 6 2 1 1 2 2 2 4 3 3 5 4 6 4 5 7 6 5 5 5 5 7 7 4 4 5 4 4 4 2
3 3 3 3 2 2 2 2 3 2 2 2 1 2 4 2 1 2 2 2 1 1 2 2 2 4 4 4 5 6 6 9 6 6 5 6 9 5 4 4 5 4 4 4 3
3 3 3 3 3 2 2 3 2 2 1 1 2 2 5 2 3 2 2 3 3 2 1 1 2 4 4 7 8 7 10 9 8 5 6 6 8 5 4 4 5 4 4 3 3
3 3 4 3 3 3 3 3 2 2 1 1 1 4 3 5 4 3 2 2 3 3 3 3 4 6 6 7 11 10 10 9 9 7 6 7 7 6 5 5 5 4 4 4 3
3 4 4 3 3 3 3 2 3 4 3 4 5 5 5 3 2 3 3 3 3 3 6 5 7 8 7 7 7 7 9 9 8 6 7 7 7 6 5 5 5 5 4 4 4
4 4 4 4 3 3 3 3 4 3 5 3 4 4 3 3 5 4 2 5 5 7 5 6 8 6 6 6 7 8 9 9 7 6 7 8 8 6 6 5 5 5 4 4 4
4 4 4 4 4 3 2 3 1 1 5 4 4 5 4 4 5 5 4 4 6 7 6 8 7 5 6 7 8 8 9 9 9 7 7 8 9 8 6 5 5 4 4 3 4
4 4 4 4 3 1 2 1 1 1 9 7 6 5 4 4 6 3 3 4 5 7 6 7 5 6 7 8 7 10 7 8 9 10 13 8 14 9 7 6 6 5 4 4 3
5 4 4 4 1 2 2 1 1 1 18 6 6 3 4 5 5 5 2 4 7 7 6 8 7 7 8 8 7 8 7 8 8 10 10 10 12 9 7 9 7 5 5 4 3
5 4 4 2 1 0 0 1 1 10 16 8 6 7 6 5 5 5 4 3 3 6 6 7 5 6 7 6 6 6 7 8 8 9 14 11 13 11 9 8 7 6 5 4 4
5 5 5 1 2 0 1 3 10 14 7 8 8 7 7 7 6 6 6 7 8 10 10 8 7 6 5 8 6 7 9 14 14 14 14 10 12 11 8 6 6 6 5 4 3
6 6 3 2 0 0 1 6 13 9 8 6 7 8 9 7 7 7 7 8 6 7 10 11 12 7 6 7 9 8 9 14 19 18 15 10 13 10 7 6 5 5 4 4 4
6 1 0 -0 0 1 4 10 10 8 7 8 8 9 8 7 7 7 7 8 7 6 10 11 11 6 6 6 6 9 11 8 12 11 15 12 9 7 7 8 6 5 5 4 4
5 2 2 -0 0 2 6 9 7 6 7 7 10 9 10 8 9 8 8 6 7 6 5 8 12 8 7 6 6 8 7 12 11 18 18 13 12 12 9 8 6 6 6 5 4
4 4 1 0 2 5 9 8 6 6 7 8 9 9 9 9 8 8 8 7 6 6 5 7 9 10 8 9 9 9 10 10 10 13 17 18 14 8 8 7 7 6 5 5 4
4 7 2 2 8 6 7 7 8 7 6 7 6 7 8 8 9 9 9 7 5 6 8 7 9 13 11 7 6 7 9 9 15 15 13 14 15 6 6 6 5 6 5 4 4
7 6 2 2 9 8 6 7 7 7 7 7 8 7 6 8 10 8 8 5 5 6 8 7 10 15 13 9 7 9 8 8 9 11 15 17 14 6 6 6 5 5 5 5 4
6 8 5 4 5 7 7 8 8 6 7 7 7 6 7 8 7 9 8 6 5 5 5 6 10 12 16 13 9 11 9 8 10 15 14 13 12 9 7 7 6 5 5 5 5
5 7 6 9 8 7 7 8 9 8 6 6 7 7 8 10 9 9 7 7 6 5 6 8 12 10 10 9 9 10 10 9 10 10 13 11 11 9 7 6 6 5 5 5 5
7 8 7 8 7 8 8 8 8 7 7 8 8 8 7 9 8 10 8 8 8 6 7 7 12 10 12 9 10 11 10 9 9 9 9 9 10 6 5 5 6 6 5 6 5
5 5 7 8 8 9 8 8 8 7 7 7 7 8 9 8 7 6 6 6 6 8 9 9 11 13 17 12 12 15 10 9 9 8 9 11 8 6 7 6 6 5 5 5 5